Andover, VA

10:36 AM EDT on October 01, 2016 (GMT -0400)
Lonesome Pine

Weather History for KLNP - September, 2011

Change the Weather History Date:

Tuesday, September 6, 2011

  Actual Average Record
Temperature  
Mean Temperature 60 °F -  
Max Temperature 62 °F 75 °F 87 °F (2007)
Min Temperature 57 °F 56 °F 51 °F (2003)
Degree Days  
Heating Degree Days 6    
Growing Degree Days 10 (Base 50)    
Moisture  
Dew Point 59 °F    
Average Humidity 99    
Maximum Humidity 100    
Minimum Humidity 94    
Precipitation  
Precipitation 0.00 in - - ()
Sea Level Pressure  
Sea Level Pressure 29.81 in    
Wind  
Wind Speed 12 mph (NNE)    
Max Wind Speed 17 mph    
Max Gust Speed 24 mph    
Visibility 1 miles    
Events      
Averages and records for this station are not official NWS values.
T = Trace of Precipitation, MM = Missing Value Source: NWS Daily Summary

Daily Weather History Graph

Daily Weather History Graph

Search for Another Location

Airport or City:

Trip Planner

Search our weather history database for the weather conditions in past years. The results will help you decide how hot, cold, wet, or windy it might be!

Date:

Astronomy

Sep. 06, 2011 Rise Set
Actual Time 7:04 AM EDT 7:51 PM EDT
Civil Twilight 6:38 AM EDT 8:17 PM EDT
Nautical Twilight 6:07 AM EDT 8:49 PM EDT
Astronomical Twilight 5:35 AM EDT 9:21 PM EDT
Moon 4:20 PM EDT (9/6) 1:25 AM EDT (9/6)
Length of Visible Light 13h 39m
Length of Day
12h 46m
Waxing Gibbous, 70% of the Moon is Illuminated
Sep 6
Waxing Gibbous
Sep 12
Full
Sep 20
Last Quarter
Sep 27
New
Oct 3
First Quarter

Hourly Weather History & Observations

Time (EDT) Temp. Dew Point Humidity Pressure Visibility Wind Dir Wind Speed Gust Speed Precip Events Conditions
12:15 AM 59.0 °F 59.0 °F 100% 29.85 in 1.0 mi North 13.8 mph 20.7 mph N/A   Overcast
12:35 AM 59.0 °F 59.0 °F 100% 29.86 in 3.0 mi North 11.5 mph 18.4 mph N/A   Overcast
12:55 AM 59.0 °F 57.2 °F 94% 29.86 in 0.8 mi North 16.1 mph 20.7 mph N/A   Overcast
1:15 AM 57.2 °F 57.2 °F 100% 29.84 in 1.5 mi NNE 17.3 mph - N/A   Overcast
1:35 AM 57.2 °F 57.2 °F 100% 29.85 in 0.8 mi North 13.8 mph 21.9 mph N/A   Overcast
1:55 AM 57.2 °F 57.2 °F 100% 29.84 in 2.0 mi NNE 12.7 mph 18.4 mph N/A   Overcast
2:15 AM 57.2 °F 57.2 °F 100% 29.83 in 2.5 mi North 9.2 mph - N/A   Overcast
2:35 AM 57.2 °F 57.2 °F 100% 29.82 in 3.0 mi North 11.5 mph - N/A   Overcast
3:15 AM 57.2 °F 57.2 °F 100% 29.78 in 3.0 mi NNE 17.3 mph - N/A   Overcast
3:35 AM 57.2 °F 57.2 °F 100% 29.79 in 3.0 mi NNE 13.8 mph 23.0 mph N/A   Overcast
3:55 AM 57.2 °F 57.2 °F 100% 29.79 in 2.5 mi NNE 15.0 mph - N/A   Overcast
4:15 AM 57.2 °F 57.2 °F 100% 29.79 in 10.0 mi NNE 11.5 mph - N/A   Overcast
4:35 AM 57.2 °F 57.2 °F 100% 29.79 in 10.0 mi North 11.5 mph - N/A   Overcast
4:55 AM 57.2 °F 57.2 °F 100% 29.79 in 2.5 mi NNE 12.7 mph - N/A   Overcast
5:15 AM 57.2 °F 57.2 °F 100% 29.79 in 2.5 mi North 11.5 mph - N/A   Overcast
5:35 AM 57.2 °F 57.2 °F 100% 29.79 in 2.5 mi North 13.8 mph 19.6 mph N/A   Overcast
5:55 AM 57.2 °F 57.2 °F 100% 29.78 in 0.2 mi NNE 15.0 mph 19.6 mph N/A   Overcast
6:15 AM 57.2 °F 57.2 °F 100% 29.79 in 0.2 mi North 17.3 mph 23.0 mph N/A   Overcast
6:35 AM 57.2 °F 57.2 °F 100% 29.79 in 0.2 mi NNE 17.3 mph - N/A   Overcast
6:55 AM 57.2 °F 57.2 °F 100% 29.79 in 0.2 mi NNE 16.1 mph 24.2 mph N/A   Overcast
7:15 AM 57.2 °F 57.2 °F 100% 29.79 in 0.2 mi NNE 15.0 mph 23.0 mph N/A   Overcast
7:35 AM 57.2 °F 57.2 °F 100% 29.80 in 1.8 mi North 12.7 mph 18.4 mph N/A   Overcast
8:15 AM 57.2 °F 57.2 °F 100% 29.80 in 1.8 mi North 10.4 mph - N/A   Overcast
8:35 AM 57.2 °F 57.2 °F 100% 29.80 in 1.8 mi North 11.5 mph - N/A   Overcast
8:55 AM 57.2 °F 57.2 °F 100% 29.81 in 1.2 mi NNE 12.7 mph - N/A   Overcast
9:15 AM 57.2 °F 57.2 °F 100% 29.81 in 2.0 mi North 9.2 mph 17.3 mph N/A   Overcast
9:35 AM 57.2 °F 57.2 °F 100% 29.82 in 5.0 mi NNE 8.1 mph - N/A   Overcast
10:15 AM 57.2 °F 57.2 °F 100% 29.82 in 1.2 mi NNE 10.4 mph - N/A   Overcast
10:35 AM 57.2 °F 57.2 °F 100% 29.82 in 1.5 mi NNE 10.4 mph - N/A   Overcast
10:55 AM 57.2 °F 57.2 °F 100% 29.82 in 0.2 mi NNE 10.4 mph - N/A   Overcast
11:15 AM 59.0 °F 57.2 °F 94% 29.82 in 0.2 mi NNE 9.2 mph - N/A   Overcast
11:35 AM 59.0 °F 59.0 °F 100% 29.82 in 0.2 mi NNE 9.2 mph - N/A   Overcast
11:55 AM 60.8 °F 60.8 °F 100% 29.82 in 0.2 mi NNE 8.1 mph - N/A   Overcast
12:15 PM 59.0 °F 59.0 °F 100% 29.82 in 0.2 mi NNE 9.2 mph - N/A   Overcast
12:35 PM 60.8 °F 60.8 °F 100% 29.82 in 0.2 mi NNE 9.2 mph - N/A   Overcast
12:55 PM 60.8 °F 60.8 °F 100% 29.81 in 0.2 mi NNE 9.2 mph - N/A   Overcast
1:15 PM 60.8 °F 60.8 °F 100% 29.81 in 0.2 mi NNE 9.2 mph - N/A   Overcast
1:35 PM 60.8 °F 60.8 °F 100% 29.81 in 0.2 mi North 8.1 mph - N/A   Overcast
1:55 PM 60.8 °F 60.8 °F 100% 29.81 in 0.2 mi NNE 8.1 mph - N/A   Overcast
2:15 PM 62.6 °F 60.8 °F 94% 29.81 in 0.2 mi North 10.4 mph - N/A   Overcast
2:35 PM 62.6 °F 62.6 °F 100% 29.81 in 0.2 mi NNE 6.9 mph - N/A   Overcast
2:55 PM 62.6 °F 62.6 °F 100% 29.80 in 0.2 mi North 6.9 mph - N/A   Overcast
3:15 PM 60.8 °F 60.8 °F 100% 29.79 in 0.2 mi NNE 9.2 mph - N/A   Overcast
3:35 PM 62.6 °F 60.8 °F 94% 29.79 in 0.2 mi North 8.1 mph - N/A   Overcast
4:15 PM 62.6 °F 62.6 °F 100% 29.80 in 0.2 mi North 8.1 mph - N/A   Overcast
4:35 PM 62.6 °F 62.6 °F 100% 29.79 in 0.2 mi North 8.1 mph - N/A   Overcast
4:55 PM 62.6 °F 62.6 °F 100% 29.80 in 0.2 mi North 8.1 mph - N/A   Overcast
5:15 PM 62.6 °F 62.6 °F 100% 29.80 in 0.2 mi NNW 3.5 mph - N/A   Overcast
5:35 PM 62.6 °F 62.6 °F 100% 29.81 in 0.2 mi Calm Calm - N/A   Overcast
5:55 PM 62.6 °F 62.6 °F 100% 29.82 in 0.2 mi West 3.5 mph - N/A   Overcast
6:15 PM 62.6 °F 62.6 °F 100% 29.82 in 0.2 mi WNW 4.6 mph - N/A   Overcast
6:35 PM 62.6 °F 60.8 °F 94% 29.82 in 0.2 mi Calm Calm - N/A   Overcast
6:55 PM 62.6 °F 62.6 °F 100% 29.82 in 0.2 mi Calm Calm - N/A   Overcast
7:15 PM 62.6 °F 62.6 °F 100% 29.83 in 0.2 mi Calm Calm - N/A   Overcast
7:35 PM 62.6 °F 62.6 °F 100% 29.83 in 0.2 mi Calm Calm - N/A   Overcast
7:55 PM 62.6 °F 62.6 °F 100% 29.84 in 0.2 mi Calm Calm - N/A   Overcast
8:15 PM 62.6 °F 62.6 °F 100% 29.84 in 1.0 mi Calm Calm - N/A   Overcast
8:35 PM 62.6 °F 62.6 °F 100% 29.85 in 1.0 mi Calm Calm - N/A   Overcast
8:55 PM 62.6 °F 62.6 °F 100% 29.86 in 0.5 mi Calm Calm - N/A   Overcast
9:15 PM 62.6 °F 62.6 °F 100% 29.88 in 1.2 mi Calm Calm - N/A   Overcast
9:35 PM 62.6 °F 62.6 °F 100% 29.88 in 0.5 mi Calm Calm - N/A   Overcast
9:55 PM 62.6 °F 62.6 °F 100% 29.88 in 0.5 mi Calm Calm - N/A   Overcast
10:15 PM 62.6 °F 62.6 °F 100% 29.89 in 0.2 mi South 3.5 mph - N/A   Overcast
10:35 PM 62.6 °F 62.6 °F 100% 29.89 in 0.2 mi South 3.5 mph - N/A   Overcast
10:55 PM 60.8 °F 60.8 °F 100% 29.90 in 0.2 mi Calm Calm - N/A   Overcast
11:15 PM 60.8 °F 60.8 °F 100% 29.90 in 10.0 mi South 4.6 mph - N/A   Scattered Clouds
11:35 PM 60.8 °F 60.8 °F 100% 29.90 in 10.0 mi South 4.6 mph - N/A   Scattered Clouds
11:55 PM 60.8 °F 60.8 °F 100% 29.90 in 10.0 mi South 3.5 mph - N/A   Mostly Cloudy